,,,PA_Meas_PMT16A,,PR_Meas_QMR101_102,,RH_Meas_QMH101,,SR_Meas_QMS101,,TA_Meas_QMH101,,GenWind,,GenWind,
date,time,status,PA,status,PR,status,RH,status,SR,status,TA,status,DirAvg,status,SpdAvg,
2011-07-28, 00:00:04,VALID,1000.3,VALID,0,VALID,67.133,VALID,0,VALID,26.5298,VALID,163,VALID,1.18125,
2011-07-28, 00:01:04,VALID,1000.28,VALID,0,VALID,67.4382,VALID,0,VALID,26.4517,VALID,180,VALID,0.826563,
2011-07-28, 00:02:04,VALID,1000.28,VALID,0,VALID,67.8044,VALID,0,VALID,26.3736,VALID,171,VALID,0.954297,
2011-07-28, 00:03:04,VALID,1000.26,VALID,0,VALID,68.3156,VALID,0,VALID,26.2349,VALID,166,VALID,1.61758,
2011-07-28, 00:04:04,VALID,1000.26,VALID,0,VALID,68.8878,VALID,0,VALID,26.1177,VALID,159,VALID,1.60234,
2011-07-28, 00:05:04,VALID,1000.25,VALID,0,VALID,69.4067,VALID,0,VALID,26.0221,VALID,152,VALID,1.73906,
2011-07-28, 00:06:04,VALID,1000.2,VALID,0,VALID,69.7271,VALID,0,VALID,25.944,VALID,158,VALID,1.67734,
2011-07-28, 00:07:04,VALID,1000.17,VALID,0,VALID,70.0475,VALID,0,VALID,25.8854,VALID,142,VALID,1.53867,
2011-07-28, 00:08:04,VALID,1000.13,VALID,0,VALID,70.429,VALID,0,VALID,25.7878,VALID,150,VALID,1.51523,
2011-07-28, 00:09:04,VALID,1000.09,VALID,0,VALID,70.7647,VALID,0.112286,VALID,25.6882,VALID,147,VALID,1.76914,
2011-07-28, 00:10:04,VALID,1000.06,VALID,0,VALID,70.8334,VALID,0,VALID,25.6687,VALID,166,VALID,1.96445,
2011-07-28, 00:11:04,VALID,1000.11,VALID,0,VALID,71.0394,VALID,0,VALID,25.6902,VALID,137,VALID,1.42969,
2011-07-28, 00:12:04,VALID,1000.12,VALID,0,VALID,71.6116,VALID,0,VALID,25.5926,VALID,143,VALID,1.39375,
2011-07-28, 00:13:04,VALID,1000.15,VALID,0,VALID,72.1915,VALID,0,VALID,25.4754,VALID,156,VALID,1.50937,
2011-07-28, 00:14:04,VALID,1000.14,VALID,0,VALID,72.1991,VALID,0,VALID,25.4754,VALID,165,VALID,2.20117,
2011-07-28, 00:15:04,VALID,1000.19,VALID,0,VALID,71.9015,VALID,0,VALID,25.5145,VALID,168,VALID,2.5082,
2011-07-28, 00:16:04,VALID,1000.19,VALID,0,VALID,71.6727,VALID,0,VALID,25.6121,VALID,165,VALID,2.32266,
2011-07-28, 00:17:04,VALID,1000.22,VALID,0,VALID,71.6955,VALID,0,VALID,25.6101,VALID,166,VALID,2.2418,
2011-07-28, 00:18:04,VALID,1000.23,VALID,0,VALID,71.6955,VALID,0,VALID,25.5926,VALID,164,VALID,2.19531,
2011-07-28, 00:19:04,VALID,1000.2,VALID,0,VALID,71.6574,VALID,0,VALID,25.6121,VALID,167,VALID,2.33984,
2011-07-28, 00:20:04,VALID,1000.2,VALID,0,VALID,71.5506,VALID,0,VALID,25.6511,VALID,167,VALID,2.11445,
2011-07-28, 00:21:04,VALID,1000.14,VALID,0,VALID,71.2149,VALID,0,VALID,25.6902,VALID,162,VALID,2.34492,
2011-07-28, 00:22:04,VALID,1000.13,VALID,0,VALID,70.5206,VALID,0,VALID,25.7878,VALID,166,VALID,2.94492,
2011-07-28, 00:23:04,VALID,1000.08,VALID,0,VALID,69.1625,VALID,0,VALID,26.0611,VALID,176,VALID,4.44063,
2011-07-28, 00:24:04,VALID,1000.14,VALID,0,VALID,68.6742,VALID,0,VALID,26.2954,VALID,159,VALID,2.84844,
2011-07-28, 00:25:04,VALID,1000.14,VALID,0,VALID,68.8497,VALID,0,VALID,26.2564,VALID,154,VALID,2.00508,
2011-07-28, 00:26:04,VALID,1000.13,VALID,0,VALID,69.071,VALID,0,VALID,26.1783,VALID,153,VALID,2.50508,
2011-07-28, 00:27:04,VALID,1000.11,VALID,0,VALID,69.3761,VALID,0,VALID,26.1197,VALID,158,VALID,2.24688,
2011-07-28, 00:28:04,VALID,1000.1,VALID,0,VALID,69.6508,VALID,0,VALID,26.0611,VALID,158,VALID,2.31406,
2011-07-28, 00:29:04,VALID,1000.08,VALID,0,VALID,70.1544,VALID,0,VALID,26.0026,VALID,144,VALID,1.61992,
2011-07-28, 00:30:04,VALID,1000.09,VALID,0,VALID,70.5816,VALID,0,VALID,25.8874,VALID,153,VALID,1.23086,
2011-07-28, 00:31:04,VALID,1000.1,VALID,0,VALID,70.6121,VALID,0,VALID,25.8288,VALID,165,VALID,1.70547,
2011-07-28, 00:32:04,VALID,1000.08,VALID,0,VALID,70.5282,VALID,0,VALID,25.8288,VALID,169,VALID,1.73281,
2011-07-28, 00:33:04,VALID,1000.07,VALID,0,VALID,70.2764,VALID,0,VALID,25.8659,VALID,159,VALID,1.86953,
2011-07-28, 00:34:04,VALID,1000.08,VALID,0,VALID,70.1467,VALID,0,VALID,25.9264,VALID,155,VALID,1.83828,
2011-07-28, 00:35:04,VALID,1000.04,VALID,0,VALID,70.3375,VALID,0,VALID,25.9069,VALID,141,VALID,1.35195,
2011-07-28, 00:36:04,VALID,1000.06,VALID,0,VALID,70.6427,VALID,0,VALID,25.8483,VALID,150,VALID,1.41523,
2011-07-28, 00:37:04,VALID,1000.06,VALID,0,VALID,70.8868,VALID,0,VALID,25.7702,VALID,150,VALID,1.21836,
2011-07-28, 00:38:04,VALID,1000.04,VALID,0,VALID,71.1386,VALID,0,VALID,25.7312,VALID,152,VALID,1.36797,
2011-07-28, 00:39:04,VALID,1000.05,VALID,0,VALID,71.3904,VALID,0,VALID,25.6921,VALID,132,VALID,1.66953,
2011-07-28, 00:40:04,VALID,1000.06,VALID,0,VALID,71.3675,VALID,0,VALID,25.6531,VALID,140,VALID,1.96055,
2011-07-28, 00:41:04,VALID,1000.11,VALID,0,VALID,71.7413,VALID,0,VALID,25.5945,VALID,143,VALID,1.4332,
2011-07-28, 00:42:04,VALID,1000.09,VALID,0,VALID,71.9015,VALID,0,VALID,25.5145,VALID,132,VALID,2.2,
2011-07-28, 00:43:04,VALID,1000.11,VALID,0,VALID,73.1757,VALID,0,VALID,25.4188,VALID,115,VALID,1.66523,
2011-07-28, 00:44:04,VALID,1000.15,VALID,0,VALID,73.8395,VALID,0,VALID,25.2236,VALID,125,VALID,1.62227,
2011-07-28, 00:45:04,VALID,1000.16,VALID,0,VALID,74.9534,VALID,0,VALID,25.0869,VALID,106,VALID,2.4375,
2011-07-28, 00:46:04,VALID,1000.14,VALID,0,VALID,77.1736,VALID,0,VALID,24.8136,VALID,97,VALID,2.17031,
2011-07-28, 00:47:04,VALID,1000.14,VALID,0,VALID,78.6003,VALID,0,VALID,24.5209,VALID,106,VALID,1.61719,
2011-07-28, 00:48:04,VALID,1000.15,VALID,0,VALID,79.2412,VALID,0,VALID,24.3257,VALID,107,VALID,1.42031,
2011-07-28, 00:49:04,VALID,1000.14,VALID,0,VALID,79.699,VALID,0,VALID,24.2086,VALID,113,VALID,1.05273,
2011-07-28, 00:50:04,VALID,1000.17,VALID,0,VALID,80.2636,VALID,0,VALID,24.072,VALID,113,VALID,1.14922,
2011-07-28, 00:51:04,VALID,1000.17,VALID,0,VALID,80.5154,VALID,0,VALID,23.9744,VALID,123,VALID,0.823438,
2011-07-28, 00:52:04,VALID,1000.14,VALID,0,VALID,80.6756,VALID,0,VALID,23.8573,VALID,121,VALID,0.938672,
2011-07-28, 00:53:04,VALID,1000.17,VALID,0,VALID,80.1949,VALID,0,VALID,23.7988,VALID,129,VALID,1.55547,
2011-07-28, 00:54:04,VALID,1000.12,VALID,0,VALID,79.3175,VALID,0,VALID,23.914,VALID,137,VALID,1.47695,
2011-07-28, 00:55:04,VALID,1000.11,VALID,0,VALID,78.5546,VALID,0,VALID,24.072,VALID,115,VALID,1.60273,
2011-07-28, 00:56:04,VALID,1000.08,VALID,0,VALID,78.2952,VALID,0,VALID,24.1891,VALID,108,VALID,1.51836,
2011-07-28, 00:57:04,VALID,1000.06,VALID,0,VALID,78.6232,VALID,0,VALID,24.1891,VALID,102,VALID,1.48906,
2011-07-28, 00:58:04,VALID,1000.05,VALID,0,VALID,79.3557,VALID,0,VALID,24.111,VALID,102,VALID,1.34883,
2011-07-28, 00:59:04,VALID,1000.08,VALID,0,VALID,79.6075,VALID,0,VALID,24.0329,VALID,101,VALID,1.43203,
2011-07-28, 01:00:04,VALID,1000.07,VALID,0,VALID,79.8287,VALID,0,VALID,23.9744,VALID,101,VALID,1.06445,
2011-07-28, 01:01:04,VALID,1000.06,VALID,0,VALID,79.9279,VALID,0,VALID,23.9354,VALID,109,VALID,0.723437,
2011-07-28, 01:02:04,VALID,1000.09,VALID,0,VALID,80.2255,VALID,0,VALID,23.836,VALID,109,VALID,0.554688,
2011-07-28, 01:03:04,VALID,1000.12,VALID,0,VALID,80.2789,VALID,0,VALID,23.8183,VALID,109,VALID,0.237891,
2011-07-28, 01:04:04,VALID,1000.11,VALID,0,VALID,80.5154,VALID,0,VALID,23.7597,VALID,109,VALID,0.316797,
2011-07-28, 01:05:04,VALID,1000.07,VALID,0,VALID,80.378,VALID,0,VALID,23.6994,VALID,144,VALID,0.816406,
2011-07-28, 01:06:04,VALID,1000.06,VALID,0,VALID,80.2865,VALID,0,VALID,23.7402,VALID,124,VALID,0.967969,
2011-07-28, 01:07:04,VALID,1000.04,VALID,0,VALID,80.1949,VALID,0,VALID,23.7597,VALID,124,VALID,1.20742,
2011-07-28, 01:08:04,VALID,1000.03,VALID,0,VALID,79.8287,VALID,0,VALID,23.797,VALID,105,VALID,0.888281,
2011-07-28, 01:09:04,VALID,999.99,VALID,0,VALID,79.699,VALID,0,VALID,23.8378,VALID,107,VALID,0.979688,
2011-07-28, 01:10:04,VALID,999.989,VALID,0,VALID,80.0042,VALID,0,VALID,23.8183,VALID,103,VALID,1.6043,
2011-07-28, 01:11:04,VALID,999.985,VALID,0,VALID,79.8592,VALID,0,VALID,23.8768,VALID,104,VALID,1.10898,
2011-07-28, 01:12:04,VALID,999.992,VALID,0,VALID,79.5846,VALID,0,VALID,23.9354,VALID,104,VALID,1.2957,
2011-07-28, 01:13:04,VALID,999.987,VALID,0,VALID,79.287,VALID,0,VALID,23.9549,VALID,104,VALID,0.710938,
2011-07-28, 01:14:04,VALID,999.984,VALID,0,VALID,79.2718,VALID,0,VALID,23.9354,VALID,104,VALID,0.255859,
2011-07-28, 01:15:04,VALID,999.972,VALID,0,VALID,79.5922,VALID,0,VALID,23.8573,VALID,100,VALID,0.629297,
2011-07-28, 01:16:04,VALID,999.993,VALID,0,VALID,79.8363,VALID,0,VALID,23.797,VALID,100,VALID,0.423438,
2011-07-28, 01:17:04,VALID,999.985,VALID,0,VALID,80.0729,VALID,0,VALID,23.7207,VALID,100,VALID,0.227344,
2011-07-28, 01:18:04,VALID,1000,VALID,0,VALID,80.3246,VALID,0,VALID,23.6409,VALID,97,VALID,0.35,
2011-07-28, 01:19:04,VALID,1000,VALID,0,VALID,80.6146,VALID,0,VALID,23.6427,VALID,99,VALID,0.853906,
2011-07-28, 01:20:04,VALID,1000.02,VALID,0,VALID,80.5688,VALID,0,VALID,23.6232,VALID,101,VALID,1.04258,
2011-07-28, 01:21:04,VALID,1000.02,VALID,0,VALID,80.5993,VALID,0,VALID,23.6232,VALID,109,VALID,1.31523,
2011-07-28, 01:22:04,VALID,999.984,VALID,0,VALID,79.9203,VALID,0,VALID,23.7402,VALID,109,VALID,0.987891,
2011-07-28, 01:23:04,VALID,1000.01,VALID,0,VALID,79.3252,VALID,0,VALID,23.8573,VALID,109,VALID,1.09961,
2011-07-28, 01:24:04,VALID,999.997,VALID,0,VALID,79.226,VALID,0,VALID,23.9159,VALID,109,VALID,1.24883,
2011-07-28, 01:25:04,VALID,999.962,VALID,0,VALID,78.4249,VALID,0,VALID,24.0329,VALID,99,VALID,1.58477,
2011-07-28, 01:26:04,VALID,999.947,VALID,0,VALID,77.99,VALID,0,VALID,24.1696,VALID,96,VALID,1.48633,
2011-07-28, 01:27:04,VALID,999.944,VALID,0,VALID,77.7535,VALID,0,VALID,24.2086,VALID,97,VALID,1.16914,
2011-07-28, 01:28:04,VALID,999.9,VALID,0,VALID,77.9518,VALID,0,VALID,24.15,VALID,114,VALID,1.38086,
2011-07-28, 01:29:04,VALID,999.904,VALID,0,VALID,77.5475,VALID,0,VALID,24.2086,VALID,147,VALID,1.43008,
2011-07-28, 01:30:04,VALID,999.873,VALID,0,VALID,75.8689,VALID,0,VALID,24.4428,VALID,164,VALID,2.6875,
2011-07-28, 01:31:04,VALID,999.858,VALID,0,VALID,74.4041,VALID,0,VALID,24.8136,VALID,166,VALID,2.55391,
2011-07-28, 01:32:04,VALID,999.834,VALID,0,VALID,73.4351,VALID,0,VALID,25.0479,VALID,154,VALID,2.28984,
2011-07-28, 01:33:04,VALID,999.853,VALID,0,VALID,72.5958,VALID,0,VALID,25.204,VALID,169,VALID,2.10352,
2011-07-28, 01:34:04,VALID,999.792,VALID,0,VALID,71.8405,VALID,0,VALID,25.3407,VALID,167,VALID,2.09492,
2011-07-28, 01:35:04,VALID,999.782,VALID,0,VALID,71.047,VALID,0,VALID,25.5164,VALID,152,VALID,2.9582,
2011-07-28, 01:36:04,VALID,999.801,VALID,0,VALID,70.841,VALID,0,VALID,25.5945,VALID,158,VALID,2.21875,
2011-07-28, 01:37:04,VALID,999.77,VALID,0,VALID,71.253,VALID,0,VALID,25.5945,VALID,155,VALID,1.89375,
2011-07-28, 01:38:04,VALID,999.75,VALID,0,VALID,70.9021,VALID,0,VALID,25.5555,VALID,170,VALID,2.89648,
2011-07-28, 01:39:04,VALID,999.726,VALID,0,VALID,70.4214,VALID,0,VALID,25.6726,VALID,166,VALID,2.41133,
2011-07-28, 01:40:04,VALID,999.669,VALID,0,VALID,69.5058,VALID,0,VALID,25.7878,VALID,177,VALID,3.30234,
2011-07-28, 01:41:04,VALID,999.646,VALID,0,VALID,68.7352,VALID,0,VALID,26.0045,VALID,172,VALID,3.50078,
2011-07-28, 01:42:04,VALID,999.656,VALID,0,VALID,68.4224,VALID,0,VALID,26.1217,VALID,166,VALID,3.21133,
2011-07-28, 01:43:04,VALID,999.604,VALID,0,VALID,68.6055,VALID,0,VALID,26.0826,VALID,161,VALID,2.67734,
2011-07-28, 01:44:04,VALID,999.555,VALID,0,VALID,68.6818,VALID,0,VALID,26.0631,VALID,162,VALID,4.35508,
2011-07-28, 01:45:04,VALID,999.551,VALID,0,VALID,68.7887,VALID,0,VALID,26.0221,VALID,166,VALID,3.28281,
2011-07-28, 01:46:04,VALID,999.475,VALID,0,VALID,68.3156,VALID,0,VALID,26.0221,VALID,159,VALID,4.35391,
2011-07-28, 01:47:04,VALID,999.505,VALID,0,VALID,68.2775,VALID,0,VALID,26.1392,VALID,164,VALID,3.47422,
2011-07-28, 01:48:04,VALID,999.445,VALID,0,VALID,68.3995,VALID,0,VALID,26.1412,VALID,162,VALID,3.23242,
2011-07-28, 01:49:04,VALID,999.406,VALID,0,VALID,68.6971,VALID,0,VALID,26.0611,VALID,164,VALID,3.11602,
2011-07-28, 01:50:04,VALID,999.386,VALID,0,VALID,68.4529,VALID,0,VALID,26.0416,VALID,153,VALID,3.63086,
2011-07-28, 01:51:04,VALID,999.38,VALID,0,VALID,68.4453,VALID,0,VALID,26.0826,VALID,164,VALID,2.85625,
2011-07-28, 01:52:04,VALID,999.369,VALID,0,VALID,67.957,VALID,0,VALID,26.1022,VALID,155,VALID,3.35859,
2011-07-28, 01:53:04,VALID,999.425,VALID,0,VALID,68.163,VALID,0,VALID,26.1607,VALID,164,VALID,2.41055,
2011-07-28, 01:54:04,VALID,999.485,VALID,0,VALID,68.3461,VALID,0,VALID,26.0807,VALID,167,VALID,1.84922,
2011-07-28, 01:55:04,VALID,999.507,VALID,0,VALID,68.2775,VALID,0,VALID,26.0611,VALID,148,VALID,2.71563,
2011-07-28, 01:56:04,VALID,999.508,VALID,0,VALID,68.5064,VALID,0,VALID,26.0241,VALID,154,VALID,3.15508,
2011-07-28, 01:57:04,VALID,999.554,VALID,0,VALID,68.7658,VALID,0,VALID,26.0045,VALID,163,VALID,2.60117,
2011-07-28, 01:58:04,VALID,999.501,VALID,0,VALID,68.8421,VALID,0,VALID,25.944,VALID,157,VALID,4.02969,
2011-07-28, 01:59:04,VALID,999.501,VALID,0,VALID,68.7505,VALID,0,VALID,25.944,VALID,155,VALID,3.63633,
2011-07-28, 02:00:04,VALID,999.47,VALID,0,VALID,68.5827,VALID,0,VALID,26.0045,VALID,167,VALID,3.32461,
2011-07-28, 02:01:04,VALID,999.427,VALID,0,VALID,68.1859,VALID,0,VALID,26.0026,VALID,168,VALID,4.2793,
2011-07-28, 02:02:04,VALID,999.394,VALID,0,VALID,67.7358,VALID,0,VALID,26.1412,VALID,172,VALID,4.61484,
2011-07-28, 02:03:04,VALID,999.38,VALID,0,VALID,67.4382,VALID,0,VALID,26.2173,VALID,173,VALID,4.2168,
2011-07-28, 02:04:04,VALID,999.358,VALID,0,VALID,67.4687,VALID,0,VALID,26.2564,VALID,172,VALID,3.59648,
2011-07-28, 02:05:04,VALID,999.394,VALID,0,VALID,67.5527,VALID,0,VALID,26.2173,VALID,164,VALID,3.39453,
2011-07-28, 02:06:04,VALID,999.369,VALID,0,VALID,67.4611,VALID,0,VALID,26.1998,VALID,175,VALID,3.36406,
2011-07-28, 02:07:04,VALID,999.386,VALID,0,VALID,67.2551,VALID,0,VALID,26.2584,VALID,166,VALID,3.42344,
2011-07-28, 02:08:04,VALID,999.396,VALID,0,VALID,67.3161,VALID,0,VALID,26.2389,VALID,172,VALID,3.04063,
2011-07-28, 02:09:04,VALID,999.397,VALID,0,VALID,67.5221,VALID,0,VALID,26.2193,VALID,169,VALID,2.98008,
2011-07-28, 02:10:04,VALID,999.37,VALID,0,VALID,67.751,VALID,0,VALID,26.1607,VALID,172,VALID,2.67031,
2011-07-28, 02:11:04,VALID,999.368,VALID,0,VALID,67.7052,VALID,0,VALID,26.1197,VALID,174,VALID,3.41563,
2011-07-28, 02:12:04,VALID,999.344,VALID,0,VALID,67.6976,VALID,0,VALID,26.1197,VALID,176,VALID,3.42695,
2011-07-28, 02:13:04,VALID,999.339,VALID,0,VALID,67.6213,VALID,0,VALID,26.1627,VALID,167,VALID,3.09102,
2011-07-28, 02:14:04,VALID,999.336,VALID,0,VALID,67.7815,VALID,0,VALID,26.1412,VALID,172,VALID,3.08672,
2011-07-28, 02:15:04,VALID,999.357,VALID,0,VALID,68.0715,VALID,0,VALID,26.0826,VALID,171,VALID,2.54063,
2011-07-28, 02:16:04,VALID,999.356,VALID,0,VALID,68.3995,VALID,0,VALID,26.0241,VALID,171,VALID,3.48867,
2011-07-28, 02:17:04,VALID,999.379,VALID,0,VALID,68.7124,VALID,0,VALID,25.985,VALID,161,VALID,2.21797,
2011-07-28, 02:18:04,VALID,999.341,VALID,0,VALID,69.0023,VALID,0,VALID,25.8874,VALID,169,VALID,2.44336,
2011-07-28, 02:19:04,VALID,999.299,VALID,0,VALID,69.1472,VALID,0,VALID,25.8268,VALID,161,VALID,2.5918,
2011-07-28, 02:20:04,VALID,999.308,VALID,0,VALID,69.5135,VALID,0,VALID,25.7702,VALID,161,VALID,2.50039,
2011-07-28, 02:21:04,VALID,999.305,VALID,0,VALID,69.9255,VALID,0,VALID,25.6902,VALID,163,VALID,1.75547,
2011-07-28, 02:22:04,VALID,999.293,VALID,0,VALID,70.1086,VALID,0,VALID,25.6316,VALID,177,VALID,1.8168,
2011-07-28, 02:23:04,VALID,999.316,VALID,0,VALID,69.9865,VALID,0,VALID,25.6316,VALID,174,VALID,2.14766,
2011-07-28, 02:24:04,VALID,999.284,VALID,0,VALID,69.811,VALID,0,VALID,25.7116,VALID,168,VALID,2.25781,
2011-07-28, 02:25:04,VALID,999.299,VALID,0,VALID,69.6355,VALID,0,VALID,25.7507,VALID,172,VALID,2.49219,
2011-07-28, 02:26:04,VALID,999.291,VALID,0,VALID,69.7805,VALID,0,VALID,25.7116,VALID,160,VALID,2.04805,
2011-07-28, 02:27:04,VALID,999.233,VALID,0,VALID,69.4677,VALID,0,VALID,25.7312,VALID,181,VALID,3.15273,
2011-07-28, 02:28:04,VALID,999.313,VALID,0,VALID,69.3838,VALID,0,VALID,25.8093,VALID,164,VALID,2.46914,
2011-07-28, 02:29:04,VALID,999.314,VALID,0,VALID,69.4601,VALID,0,VALID,25.7702,VALID,170,VALID,2.33477,
2011-07-28, 02:30:04,VALID,999.364,VALID,0,VALID,69.7271,VALID,0,VALID,25.7312,VALID,172,VALID,2.32969,
2011-07-28, 02:31:04,VALID,999.383,VALID,0,VALID,69.956,VALID,0,VALID,25.6707,VALID,164,VALID,1.89922,
2011-07-28, 02:32:04,VALID,999.36,VALID,0,VALID,70.0247,VALID,0,VALID,25.6531,VALID,164,VALID,2.39297,
2011-07-28, 02:33:04,VALID,999.374,VALID,0,VALID,70.0552,VALID,0,VALID,25.6726,VALID,161,VALID,2.22266,
2011-07-28, 02:34:04,VALID,999.373,VALID,0,VALID,70.2383,VALID,0,VALID,25.6336,VALID,166,VALID,1.66484,
2011-07-28, 02:35:04,VALID,999.401,VALID,0,VALID,70.3527,VALID,0,VALID,25.6336,VALID,171,VALID,1.84805,
2011-07-28, 02:36:04,VALID,999.353,VALID,0,VALID,70.3146,VALID,0,VALID,25.5535,VALID,175,VALID,2.05195,
2011-07-28, 02:37:04,VALID,999.321,VALID,0,VALID,70.0933,VALID,0,VALID,25.5926,VALID,183,VALID,2.13789,
2011-07-28, 02:38:04,VALID,999.305,VALID,0,VALID,69.8263,VALID,0,VALID,25.6726,VALID,170,VALID,2.18203,
2011-07-28, 02:39:04,VALID,999.299,VALID,0,VALID,69.8492,VALID,0,VALID,25.6511,VALID,169,VALID,1.60273,
2011-07-28, 02:40:04,VALID,999.273,VALID,0,VALID,69.9636,VALID,0,VALID,25.6336,VALID,166,VALID,1.82891,
2011-07-28, 02:41:04,VALID,999.248,VALID,0,VALID,70.101,VALID,0,VALID,25.5945,VALID,160,VALID,1.96445,
2011-07-28, 02:42:04,VALID,999.238,VALID,0,VALID,70.2841,VALID,0,VALID,25.5555,VALID,164,VALID,1.99414,
2011-07-28, 02:43:04,VALID,999.244,VALID,0,VALID,70.4824,VALID,0,VALID,25.4969,VALID,171,VALID,2.10859,
2011-07-28, 02:44:04,VALID,999.256,VALID,0,VALID,70.4214,VALID,0,VALID,25.5164,VALID,173,VALID,1.90391,
2011-07-28, 02:45:04,VALID,999.256,VALID,0,VALID,70.5206,VALID,0,VALID,25.5164,VALID,170,VALID,1.56875,
2011-07-28, 02:46:04,VALID,999.283,VALID,0,VALID,70.5282,VALID,0,VALID,25.4754,VALID,175,VALID,2.08555,
2011-07-28, 02:47:04,VALID,999.273,VALID,0,VALID,70.3146,VALID,0,VALID,25.4969,VALID,171,VALID,2.26602,
2011-07-28, 02:48:04,VALID,999.298,VALID,0,VALID,70.3756,VALID,0,VALID,25.5359,VALID,168,VALID,2.01836,
2011-07-28, 02:49:04,VALID,999.296,VALID,0,VALID,70.5435,VALID,0,VALID,25.4774,VALID,171,VALID,1.81523,
2011-07-28, 02:50:04,VALID,999.275,VALID,0,VALID,70.6045,VALID,0,VALID,25.4383,VALID,159,VALID,1.9543,
2011-07-28, 02:51:04,VALID,999.265,VALID,0,VALID,70.574,VALID,0,VALID,25.3973,VALID,161,VALID,2.35078,
2011-07-28, 02:52:04,VALID,999.231,VALID,0,VALID,70.4367,VALID,0,VALID,25.4383,VALID,168,VALID,3.13906,
2011-07-28, 02:53:04,VALID,999.222,VALID,0,VALID,70.3909,VALID,0,VALID,25.4364,VALID,163,VALID,2.45586,
2011-07-28, 02:54:04,VALID,999.186,VALID,0,VALID,70.5053,VALID,0,VALID,25.4383,VALID,172,VALID,2.53203,
2011-07-28, 02:55:04,VALID,999.19,VALID,0,VALID,70.4672,VALID,0,VALID,25.4578,VALID,167,VALID,2.17266,
2011-07-28, 02:56:04,VALID,999.196,VALID,0,VALID,70.5816,VALID,0,VALID,25.4169,VALID,171,VALID,2.43633,
2011-07-28, 02:57:04,VALID,999.176,VALID,0,VALID,70.7724,VALID,0,VALID,25.3993,VALID,166,VALID,2.18477,
2011-07-28, 02:58:04,VALID,999.125,VALID,0,VALID,70.9097,VALID,0,VALID,25.3602,VALID,168,VALID,2.45117,
2011-07-28, 02:59:04,VALID,999.134,VALID,0,VALID,70.8944,VALID,0,VALID,25.3212,VALID,161,VALID,2.56289,
2011-07-28, 03:00:04,VALID,999.134,VALID,0,VALID,71.1386,VALID,0,VALID,25.2802,VALID,163,VALID,2.55234,
2011-07-28, 03:01:04,VALID,999.154,VALID,0,VALID,71.4667,VALID,0,VALID,25.2431,VALID,160,VALID,2.54609,
2011-07-28, 03:02:04,VALID,999.158,VALID,0,VALID,71.7489,VALID,0,VALID,25.1631,VALID,164,VALID,2.45078,
2011-07-28, 03:03:04,VALID,999.145,VALID,0,VALID,71.6574,VALID,0,VALID,25.1436,VALID,164,VALID,2.58945,
2011-07-28, 03:04:04,VALID,999.114,VALID,0,VALID,71.1767,VALID,0,VALID,25.204,VALID,164,VALID,2.84922,
2011-07-28, 03:05:04,VALID,999.113,VALID,0,VALID,70.2154,VALID,0,VALID,25.3993,VALID,180,VALID,4.19922,
2011-07-28, 03:06:04,VALID,999.131,VALID,0,VALID,68.9489,VALID,0,VALID,25.6121,VALID,186,VALID,4.04883,
2011-07-28, 03:07:04,VALID,999.098,VALID,0,VALID,68.5293,VALID,0,VALID,25.7312,VALID,181,VALID,3.27969,
2011-07-28, 03:08:04,VALID,999.11,VALID,0,VALID,67.9036,VALID,0,VALID,25.8679,VALID,185,VALID,3.32422,
2011-07-28, 03:09:04,VALID,999.117,VALID,0,VALID,67.3924,VALID,0,VALID,25.9655,VALID,187,VALID,2.95117,
2011-07-28, 03:10:04,VALID,999.121,VALID,0,VALID,67.072,VALID,0,VALID,26.0241,VALID,179,VALID,3.025,
2011-07-28, 03:11:04,VALID,999.123,VALID,0,VALID,67.1788,VALID,0,VALID,26.0241,VALID,183,VALID,2.56367,
2011-07-28, 03:12:04,VALID,999.112,VALID,0,VALID,67.0796,VALID,0,VALID,26.0241,VALID,180,VALID,2.55039,
2011-07-28, 03:13:04,VALID,999.12,VALID,0,VALID,67.3314,VALID,0,VALID,25.983,VALID,172,VALID,2.24492,
2011-07-28, 03:14:04,VALID,999.096,VALID,0,VALID,67.6137,VALID,0,VALID,25.985,VALID,175,VALID,1.89844,
2011-07-28, 03:15:04,VALID,999.105,VALID,0,VALID,67.9647,VALID,0,VALID,25.9069,VALID,169,VALID,2.03477,
2011-07-28, 03:16:04,VALID,999.097,VALID,0,VALID,68.6818,VALID,0,VALID,25.7507,VALID,167,VALID,1.85469,
2011-07-28, 03:17:04,VALID,999.098,VALID,0,VALID,69.2159,VALID,0,VALID,25.614,VALID,172,VALID,1.93398,
2011-07-28, 03:18:04,VALID,999.079,VALID,0,VALID,69.5898,VALID,0,VALID,25.4969,VALID,177,VALID,1.98789,
2011-07-28, 03:19:04,VALID,999.092,VALID,0,VALID,69.7424,VALID,0,VALID,25.4578,VALID,180,VALID,1.95898,
2011-07-28, 03:20:04,VALID,999.056,VALID,0,VALID,69.193,VALID,0,VALID,25.4774,VALID,192,VALID,2.12266,
2011-07-28, 03:21:04,VALID,999.065,VALID,0,VALID,68.987,VALID,0,VALID,25.5945,VALID,205,VALID,1.25508,
2011-07-28, 03:22:04,VALID,999.036,VALID,0,VALID,68.4148,VALID,0,VALID,25.614,VALID,173,VALID,1.79375,
2011-07-28, 03:23:04,VALID,999.024,VALID,0,VALID,67.896,VALID,0,VALID,25.6921,VALID,228,VALID,2.125,
2011-07-28, 03:24:04,VALID,999.089,VALID,0,VALID,67.4916,VALID,0,VALID,25.8093,VALID,198,VALID,1.75195,
2011-07-28, 03:25:04,VALID,999.087,VALID,0,VALID,67.2398,VALID,0,VALID,25.8874,VALID,188,VALID,1.85078,
2011-07-28, 03:26:04,VALID,999.068,VALID,0,VALID,66.721,VALID,0,VALID,25.9264,VALID,179,VALID,1.82656,
2011-07-28, 03:27:04,VALID,999.078,VALID,0,VALID,66.9118,VALID,0,VALID,25.9049,VALID,173,VALID,2.65078,
2011-07-28, 03:28:04,VALID,999.072,VALID,0,VALID,67.2169,VALID,0,VALID,25.8679,VALID,179,VALID,2.57227,
2011-07-28, 03:29:04,VALID,999.079,VALID,0,VALID,67.1254,VALID,0,VALID,25.8073,VALID,179,VALID,2.34219,
2011-07-28, 03:30:04,VALID,999.086,VALID,0,VALID,67.0644,VALID,0,VALID,25.8483,VALID,179,VALID,2.04688,
2011-07-28, 03:31:04,VALID,999.113,VALID,0,VALID,67.0262,VALID,0,VALID,25.8483,VALID,189,VALID,1.58008,
2011-07-28, 03:32:04,VALID,999.081,VALID,0,VALID,67.1483,VALID,0,VALID,25.8288,VALID,179,VALID,2.02695,
2011-07-28, 03:33:04,VALID,999.119,VALID,0,VALID,67.0186,VALID,0,VALID,25.8288,VALID,212,VALID,1.54883,
2011-07-28, 03:34:04,VALID,999.124,VALID,0,VALID,67.0644,VALID,0,VALID,25.8093,VALID,191,VALID,1.08984,
2011-07-28, 03:35:04,VALID,999.127,VALID,0,VALID,66.9652,VALID,0,VALID,25.8093,VALID,205,VALID,1.23555,
2011-07-28, 03:36:04,VALID,999.14,VALID,0,VALID,66.9118,VALID,0,VALID,25.8288,VALID,192,VALID,1.13125,
2011-07-28, 03:37:04,VALID,999.127,VALID,0,VALID,66.2098,VALID,0,VALID,25.8659,VALID,209,VALID,1.64961,
2011-07-28, 03:38:04,VALID,999.122,VALID,0,VALID,65.9504,VALID,0,VALID,25.985,VALID,184,VALID,1.94922,
2011-07-28, 03:39:04,VALID,999.122,VALID,0,VALID,66.1717,VALID,0,VALID,26.0026,VALID,179,VALID,1.74609,
2011-07-28, 03:40:04,VALID,999.12,VALID,0,VALID,66.4082,VALID,0,VALID,25.944,VALID,170,VALID,1.48477,
2011-07-28, 03:41:04,VALID,999.113,VALID,0,VALID,66.5913,VALID,0,VALID,25.8679,VALID,170,VALID,2.33203,
2011-07-28, 03:42:04,VALID,999.113,VALID,0,VALID,67.0186,VALID,0,VALID,25.8093,VALID,166,VALID,1.74609,
2011-07-28, 03:43:04,VALID,999.133,VALID,0,VALID,67.4306,VALID,0,VALID,25.7116,VALID,165,VALID,1.78164,
2011-07-28, 03:44:04,VALID,999.182,VALID,0,VALID,67.2627,VALID,0,VALID,25.6336,VALID,178,VALID,2.36602,
2011-07-28, 03:45:04,VALID,999.193,VALID,0,VALID,66.7821,VALID,0,VALID,25.6921,VALID,178,VALID,3.09922,
2011-07-28, 03:46:04,VALID,999.245,VALID,0,VALID,66.3548,VALID,0,VALID,25.7878,VALID,194,VALID,2.94336,